Change the Weather History Date:

Tuesday, May 13, 2014

  Actual Average Record
Temperature  
Mean Temperature 43 °F -  
Max Temperature 58 °F 63 °F 96 °F (2001)
Min Temperature 29 °F 41 °F 28 °F (2005)
Degree Days  
Heating Degree Days 22    
Moisture  
Dew Point 26 °F    
Average Humidity 50    
Maximum Humidity 79    
Minimum Humidity 27    
Precipitation  
Precipitation 0.00 in - - ()
Sea Level Pressure  
Sea Level Pressure 30.33 in    
Wind  
Wind Speed 13 mph (NW)    
Max Wind Speed 24 mph    
Max Gust Speed 32 mph    
Visibility 10 miles    
Events      
Averages and records for this station are not official NWS values.
T = Trace of Precipitation, MM = Missing Value Source: NWS Daily Summary

Daily Weather History Graph

Daily Weather History Graph

Search for Another Location

Airport or City:

Trip Planner

Search our weather history database for the weather conditions in past years. The results will help you decide how hot, cold, wet, or windy it might be!

Date:

Astronomy

May. 13, 2014 Rise Set
Actual Time 5:28 AM MDT 8:10 PM MDT
Civil Twilight 4:54 AM MDT 8:43 PM MDT
Nautical Twilight 4:12 AM MDT 9:25 PM MDT
Astronomical Twilight 3:24 AM MDT 10:14 PM MDT
Moon 7:11 PM MDT (5/13) 4:49 AM MDT (5/13)
Length of Visible Light 15h 48m
Length of Day
14h 42m
Waxing Gibbous, 99% of the Moon is Illuminated
May 13
Waxing Gibbous
May 14
Full
May 21
Last Quarter
May 28
New
Jun 5
First Quarter

Hourly Weather History & Observations

Time (MDT) Temp. Windchill Dew Point Humidity Pressure Visibility Wind Dir Wind Speed Gust Speed Precip Events Conditions
12:58 AM 34.3 °F 26.5 °F 25.7 °F 71% 30.34 in 10.0 mi WNW 10.4 mph - N/A   Clear
1:58 AM 33.3 °F 25.1 °F 25.2 °F 72% 30.32 in 10.0 mi West 10.4 mph - N/A   Unknown
2:58 AM 32.0 °F 24.2 °F 25.0 °F 75% 30.32 in 10.0 mi West 9.2 mph - N/A   Clear
3:58 AM 32.5 °F 27.1 °F 24.3 °F 72% 30.34 in 10.0 mi West 5.8 mph - N/A   Clear
4:58 AM 29.3 °F 19.1 °F 23.5 °F 79% 30.32 in 10.0 mi NW 12.7 mph - N/A   Scattered Clouds
5:58 AM 35.1 °F 28.6 °F 25.9 °F 69% 30.33 in 10.0 mi NW 8.1 mph - N/A   Mostly Cloudy
8:58 AM 50.2 °F - 26.1 °F 39% 30.34 in 10.0 mi NNW 19.6 mph 27.6 mph N/A   Overcast
10:58 AM 52.3 °F - 27.1 °F 38% 30.36 in 10.0 mi North 16.1 mph - N/A   Scattered Clouds
11:58 AM 54.1 °F - 28.4 °F 37% 30.35 in 10.0 mi NNW 18.4 mph 24.2 mph N/A   Partly Cloudy
12:58 PM 55.4 °F - 29.1 °F 37% 30.36 in 10.0 mi North 17.3 mph 25.3 mph N/A   Scattered Clouds
1:56 PM 55.4 °F - 28.4 °F 36% 30.30 in 10.0 mi NW 20.7 mph - N/A   Mostly Cloudy
1:58 PM 55.0 °F - 28.9 °F 37% 30.35 in 10.0 mi NW 20.7 mph - N/A   Mostly Cloudy
2:58 PM 56.1 °F - 26.1 °F 31% 30.35 in 10.0 mi NNW 17.3 mph - N/A   Mostly Cloudy
3:58 PM 57.0 °F - 23.2 °F 27% 30.34 in 10.0 mi North 24.2 mph 32.2 mph N/A   Scattered Clouds
4:58 PM 57.6 °F - 24.4 °F 28% 30.34 in 10.0 mi NNW 24.2 mph 29.9 mph N/A   Mostly Cloudy
5:58 PM 56.5 °F - 24.3 °F 29% 30.33 in 10.0 mi NNW 13.8 mph - N/A   Overcast
6:58 PM 55.0 °F - 23.7 °F 30% 30.31 in 10.0 mi NNW 18.4 mph 25.3 mph N/A   Clear
7:58 PM 51.8 °F - 25.9 °F 37% 30.30 in 10.0 mi NNW 15.0 mph - N/A   Clear
8:58 PM 41.2 °F 37.3 °F 29.3 °F 63% 30.31 in 10.0 mi WNW 5.8 mph - N/A   Clear
9:58 PM 39.7 °F 34.3 °F 27.5 °F 62% 30.34 in 10.0 mi West 8.1 mph - N/A   Clear
10:58 PM 38.3 °F 31.9 °F 27.7 °F 66% 30.34 in 10.0 mi West 9.2 mph - N/A   Clear
11:58 PM 37.8 °F 30.7 °F 27.1 °F 66% 30.34 in 10.0 mi West 10.4 mph - N/A   Clear